Terminal Aerodrome Forecast
Issued by NWS

Home | Current Version | Previous Version | Text Only | Print | Product List | Glossary On
Versions: 1 2 3 4 5 6 7 8 9 10 11 12 13 14 15 16 17 18 19 20 21 22 23 24 25 26 27 28 29 30 31 32 33 34 35
000
FTAK31 PAFA 271514 AAA
TAFAUN
TAF AMD
PAUN 271514Z 2715/2812 20014KT P6SM BKN013 OVC020
     FM280000 25007KT P6SM BKN080 OVC200=

USA.gov is the U.S. government's official web portal to all federal, state and local government web resources and services.